Regional Weather Roundup
Issued by NWS

Home | Current Version | Previous Version | Graphics & Text | Print | Product List | Glossary Off
Versions: 1 2 3 4 5 6 7 8 9 10 11 12 13 14 15 16 17 18 19 20 21 22 23 24 25 26 27 28 29 30 31 32 33 34 35 36 37 38 39 40 41 42 43 44 45 46 47 48 49 50

000
ASUS43 KDMX 210206
RWRIA

WEATHER ROUNDUP FOR IOWA
NATIONAL WEATHER SERVICE DES MOINES IA
900 PM CDT THU JUL 20 2017

NOTE: "FAIR" INDICATES FEW OR NO CLOUDS BELOW 12,000 FEET WITH NO
SIGNIFICANT WEATHER AND/OR OBSTRUCTIONS TO VISIBILITY.

* - THESE STATIONS ARE NOT NWS STATIONS...THUS NOT UNDER NWS
QUALITY CONTROL.  THEY ALSO DO NOT REPORT WEATHER SUCH
AS PRECIPITATION OR FOG.

IAZ001>003-012>014-020>022-031>034-043>046-210300-
   NORTHWEST IOWA

CITY           SKY/WX    TMP DP  RH WIND       PRES   REMARKS
CARROLL *      CLOUDY    73  70  88 E23G32    29.92F
CHEROKEE *     CLOUDY    78  74  88 SE5       29.92R
DENISON *      CLOUDY    75  68  78 SE8       29.94R
ORANGE CITY *  CLEAR     81  75  83 CALM      29.92S HX  86
SHELDON *      CLEAR     79  72  78 E7        29.90F HX  82
SIOUX CITY     CLEAR     79  71  76 S3        29.87F HX  82
SPENCER        CLOUDY    80  73  79 E9        29.92F HX  84
STORM LAKE *   CLOUDY    75  72  88 VRB3      29.94R
$$

IAZ055>058-069>071-079>083-090>094-210300-
   SOUTHWEST IOWA

CITY           SKY/WX    TMP DP  RH WIND       PRES   REMARKS
ATLANTIC *     CLOUDY    86  79  79 NE8       29.94R HX  99
AUDUBON *      CLOUDY    73  70  88 NE12G29   29.98R
CLARINDA *     CLEAR     86  81  84 CALM      29.91F HX 102
COUNCIL BLFS * CLOUDY    86  82  89 E6        29.89F HX 105
CRESTON *      CLOUDY    86  79  79 CALM      29.96R HX  99
HARLAN  *      CLOUDY    79  73  83 NE6       29.96R HX  82
LAMONI         CLEAR     87  80  79 CALM      29.94R HX 103
RED OAK *      CLOUDY    86  82  89 NE8       29.91S HX 105
SHENANDOAH *   CLOUDY    86  79  79 S3        29.89F HX  99
$$

IAZ047>049-059>061-072>074-084-210300-
   CENTRAL IOWA

CITY           SKY/WX    TMP DP  RH WIND       PRES   REMARKS
AMES           TSTM      84  79  85 NE9       29.93S HX  96
ANKENY *       CLOUDY    86  79  79 E8        29.93R HX  99
BOONE *        CLOUDY    82  77  83 NE7       29.95R HX  91
CHARITON *     PTCLDY    88  77  70 S6        29.93S HX 100
DES MOINES     CLOUDY    92  76  59 VRB3      29.90S HX 104
GRINNELL*      PTCLDY    82  78  85 NE9       29.95S HX  91
KNOXVILLE *    CLOUDY    90  77  66 VRB6      29.91S HX 102
MARSHALLTOWN   CLOUDY    83  77  82 NE9       29.94R HX  92
NEWTON *       CLOUDY    84  79  84 NE10      29.94R HX  96
PELLA *        PTCLDY    88  77  70 E3        29.92S HX  99
PERRY *        HVY RAIN  79  74  84 W23G35    30.02R HX  82
$$

IAZ004>006-015-016-023>025-035-036-210300-
   NORTH CENTRAL IOWA

CITY           SKY/WX    TMP DP  RH WIND       PRES   REMARKS
ALGONA *       CLOUDY    81  75  83 E9        29.94S HX  86
CLARION *      CLOUDY    81  75  83 E12       29.95F HX  86
ESTHERVILLE    PTCLDY    77  76  96 E8        29.92F
FORT DODGE *   CLOUDY    81  73  78 E7        29.96R HX  85
MASON CITY     CLOUDY    78  73  84 E7        29.96F HX  81
FOREST CITY *    N/A     79  73  83 CALM      29.95F HX  82
WEBSTER CITY * CLOUDY    82  75  78 E10       29.93R HX  89
IOWA FALLS *     N/A     82  75  80 E7        29.97S HX  88
$$

IAZ007>011-017>019-026>030-037>042-050>054-066-210300-
   NORTHEAST IOWA

CITY           SKY/WX    TMP DP  RH WIND       PRES   REMARKS
CEDAR RAPIDS   PTCLDY    83  80  91 NE13      29.93S HX  95
CHARLES CITY * PTCLDY    77  77 100 E5        29.97F
CLINTON *      MOCLDY    80  78  94 E6        29.96S HX  88
DECORAH *      CLOUDY    75  72  88 CALM      29.97S
DUBUQUE        PTCLDY    77  73  87 NE6       29.97F
MONTICELLO *   CLEAR     79  77  94 CALM      29.95F HX  83
WATERLOO       MOCLDY    78  74  87 NE5       29.93F HX  81
$$

IAZ064-065-067-068-078-210300-
   EAST CENTRAL IOWA

CITY           SKY/WX    TMP DP  RH WIND       PRES   REMARKS
DAVENPORT      CLOUDY    82  76  81 E5        29.96F HX  89
IOWA CITY      PTCLDY    85  78  80 E7        29.95R HX  96
MUSCATINE *    RAIN      77  66  69 S14G36    29.95R
QUAD CITIES    CLOUDY    85  77  77 E12       29.94R HX  95
$$

IAZ062-063-075>077-085>089-095>099-210300-
   SOUTHEAST IOWA

CITY           SKY/WX    TMP DP  RH WIND       PRES   REMARKS
BURLINGTON     CLOUDY    82  71  69 N6        29.93R HX  86
FAIRFIELD *    CLOUDY    77  72  83 SE15      29.93S
FORT MADISON * CLOUDY    84  70  61 CALM      29.94S HX  88
KEOKUK *       CLOUDY    88  79  74 CALM      29.91F HX 102
OSKALOOSA *    MOCLDY    86  78  76 CALM      29.92S HX  98
CENTERVILLE *    N/A     84  77  79 CALM      29.95S HX  94
OTTUMWA        CLOUDY    90  79  70 E10       29.90F HX 106
WASHINGTON *   CLOUDY    73  72  94 E9G16     29.97R
$$

ABBREVIATIONS USED IN REMARKS
   TC - TEMPERATURES IN CELSIUS
  WCI - WIND CHILL INDEX
   HX - HEAT INDEX
  VSB - VISIBILITY
$$





USA.gov is the U.S. government's official web portal to all federal, state and local government web resources and services.